Showing default

CYGFM04, 41885

Orbit data source: Space-Track

CYGFM04, 41885 is an American payload satellite in LEO that was launched on Thu, 15 Dec 2016 UTC via a PEGASUS XL launch vehicle from the Pegasus Launch, Eastern Range Air Space (ERAS). Payloads include a variety of satellites, spacecraft, and rockets equipped with specific instruments for various scientific and technological missions. These include communications satellites like Starlink; space stations such as the ISS; scientific satellites like the Hubble; Earth observation satellites from companies like Planet Labs, Umbra, and HawkEye 360; GPS; miniature CubeSats for education and research; and military/defense satellites.

Loading next visibility...
CYGFM04 details
Identifier
41885, 2016-078B
Orbit
LEO
Last TLE update19 hours ago
Origin
Flag of USLARCN/SWRIB (US)
ManufacturerSST-US
MissionExtended mission Civil Science
Bus & MotorCYGNSS, Unknown motor
Mass29 kg wet, 29 kg dry
Launch date (UTC)
2016-12-15 (8 years ago)
Launch vehicle
PEGASUS XL
Launch site
Pegasus Launch, Eastern Range Air Space (ERAS)
Object type
Payload
Rocket body
Debris
Shape & HBRHalf Hex Cyl + 2 Pan, 1.7 m
Radar Cross Section0.450 m², Medium (>0.1 m² and < 1m²)

Expand to show TLE details & history

TLE from 19 hours ago
0 CYGFM04
1 41885U 16078B   24346.12170755  .00018017  00000-0  51948-3 0  9992
2 41885  34.9372 238.0653 0009014  19.0980 341.0074 15.34783236443309
Epoch: 2024-12-11T02:55Z
Definitive object data (Epoch: 2024-12-11T02:55:15.532Z)
Latitude-0°
Longitude113.92964°
Altitude454.632 km
Speed7.645 km/s
True Right ascension15h 52m 15s
True Declination0° 00' 00"
Sunlit
Object was in daylight at TLE epoch
Visualization TLE readout
Latitude21.69329°
Longitude143.37456°
Altitude454.111 km
Speed7.648 km/s
Apparent Right ascension14h 28m 45s
Apparent Declination-22° 41' 42"
Sunlit
Object is in daylight
Visualization observer readout
Local Sidereal Time20:13:33
Azimuth249.994° W
Elevation-11.576°
Doppler factor1
Orbital elements
Apogee altitude471.009 km
Perigee altitude458.673 km
Semi-major axis6,842.978 km
Eccentricity0.0009014
Inclination34.9372°
RAAN238.0653°
Arg. of periapsis19.098°
True anomaly340.97375°
Mean anomaly341.0074°
Eccentric anomaly340.99058°
Mean motion3.83421 °/min
BSTAR0.00051948
Orbital period93.89 mins
Loading maneuver chart data...
Loading historical data...
Loading historical data...
Loading historical data...
Loading historical data...
Loading historical data...
Loading historical data...
Loading historical data...

CYGFM04 Visibility forecast

Observer location: undefined°, undefined

Span
Click to sort rows by Start time (UTC) header in descending order
Start Az.
Max El. time (UTC)
Max El. Az.
Max El.
End time (UTC)
End Az.
5 mins2024-12-11 21:56:38.531Z226.973° WSW2024-12-11 21:59:38.531Z155.376° SSE26.007°2024-12-11 22:01:38.531Z114.052° SE
5 mins2024-12-11 23:35:38.531Z242.585° WSW2024-12-11 23:37:38.531Z194.707° SSW29.513°2024-12-11 23:40:38.531Z122.085° SE
4 mins2024-12-12 21:22:38.531Z204.624° SW2024-12-12 21:23:38.531Z176.729° S25.67°2024-12-12 21:26:38.531Z110.612° ESE
|